Weather History for West Memphis, AR

Change the Weather History Date:

Saturday, April 26, 2014

  Actual Average Record
Temperature  
Mean Temperature 65 °F -  
Max Temperature 81 °F 74 °F 86 °F (2012)
Min Temperature 50 °F 51 °F 39 °F (1992)
Growing Degree Days 15 (Base 50)    
Moisture  
Dew Point 53 °F    
Average Humidity 68    
Maximum Humidity 100    
Minimum Humidity 32    
Precipitation  
Precipitation 0.00 in - - ()
Sea Level Pressure  
Sea Level Pressure 29.90 in    
Wind  
Wind Speed 4 mph (South)    
Max Wind Speed 13 mph    
Max Gust Speed -    
Visibility 10 miles    
Events      
Averages and records for this station are not official NWS values.
T = Trace of Precipitation, MM = Missing Value Source: NWS Daily Summary

Daily Weather History Graph

Daily Weather History Graph

Search for Another Location

Airport:

Trip Planner

Search our weather history database for the weather conditions in past years. The results will help you decide how hot, cold, wet, or windy it might be!

Date:

Astronomy

Apr. 26, 2014 Rise Set
Actual Time 6:15 AM CDT 7:42 PM CDT
Civil Twilight 5:48 AM CDT 8:09 PM CDT
Nautical Twilight 5:16 AM CDT 8:41 PM CDT
Astronomical Twilight 4:43 AM CDT 9:15 PM CDT
Moon 4:32 AM CDT (4/26) 5:16 PM CDT (4/26)
Length of Visible Light 14h 20m
Length of Day
13h 27m
Waning Crescent, 8% of the Moon is Illuminated
Apr 26
Waning Crescent
Apr 29
New
May 6
First Quarter
May 14
Full
May 21
Last Quarter

Hourly Weather History & Observations

Time (CDT) Temp. Heat Index Dew Point Humidity Pressure Visibility Wind Dir Wind Speed Gust Speed Precip Events Conditions
12:53 AM 53.1 °F - 51.1 °F 93% 29.96 in 10.0 mi Calm Calm - N/A   Clear
1:53 AM 53.1 °F - 51.1 °F 93% 29.94 in 10.0 mi Calm Calm - N/A   Clear
2:53 AM 54.0 °F - 52.0 °F 93% 29.93 in 10.0 mi SSE 3.5 mph - N/A   Clear
3:53 AM 53.1 °F - 53.1 °F 100% 29.92 in 10.0 mi Calm Calm - N/A   Clear
4:53 AM 52.0 °F - 52.0 °F 100% 29.92 in 10.0 mi SE 3.5 mph - N/A   Clear
5:53 AM 50.0 °F - 50.0 °F 100% 29.92 in 10.0 mi SSE 4.6 mph - N/A   Clear
6:53 AM 51.1 °F - 50.0 °F 96% 29.94 in 10.0 mi Calm Calm - N/A   Clear
7:53 AM 57.0 °F - 52.0 °F 83% 29.96 in 10.0 mi SSE 3.5 mph - N/A   Clear
8:53 AM 64.0 °F - 53.1 °F 67% 29.96 in 10.0 mi SSE 8.1 mph - N/A   Clear
9:53 AM 70.0 °F - 55.9 °F 61% 29.96 in 10.0 mi SSW 6.9 mph - N/A   Clear
10:53 AM 73.0 °F - 53.1 °F 49% 29.97 in 10.0 mi South 8.1 mph - N/A   Clear
11:53 AM 73.9 °F - 55.9 °F 53% 29.95 in 10.0 mi SSW 10.4 mph - N/A   Clear
12:53 PM 75.0 °F - 57.9 °F 55% 29.94 in 10.0 mi South 10.4 mph - N/A   Clear
1:53 PM 77.0 °F - 57.9 °F 52% 29.92 in 10.0 mi South 8.1 mph - N/A   Clear
2:53 PM 78.1 °F - 54.0 °F 43% 29.89 in 10.0 mi South 12.7 mph - N/A   Clear
3:53 PM 80.1 °F 79.9 °F 53.1 °F 39% 29.87 in 10.0 mi South 11.5 mph - N/A   Clear
4:53 PM 80.1 °F - 48.0 °F 32% 29.86 in 10.0 mi SSW 11.5 mph - N/A   Clear
5:53 PM 79.0 °F - 50.0 °F 36% 29.84 in 10.0 mi South 10.4 mph - N/A   Clear
6:53 PM 75.0 °F - 51.1 °F 43% 29.83 in 10.0 mi South 8.1 mph - N/A   Clear
7:53 PM 69.1 °F - 52.0 °F 54% 29.83 in 10.0 mi SSE 5.8 mph - N/A   Clear
8:53 PM 66.0 °F - 52.0 °F 60% 29.84 in 10.0 mi South 3.5 mph - N/A   Clear
9:53 PM 63.0 °F - 54.0 °F 72% 29.84 in 10.0 mi SSE 9.2 mph - N/A   Clear
10:53 PM 63.0 °F - 55.0 °F 75% 29.83 in 10.0 mi SE 5.8 mph - N/A   Clear
11:53 PM 63.0 °F - 55.9 °F 78% 29.81 in 10.0 mi SSE 8.1 mph - N/A   Clear